Temp
63 63 63 63 62 62 62 62 62 62 62 62 62 62 62 61 61 61 61 61 61 60 61 61 62 63 73 86 92 94 81 83 95 97 98 96 93 91 83 86 87 83 82 82 82 82 81
63 63 63 62 62 62 62 62 62 62 61 61 61 61 61 61 61 61 61 61 60 60 61 61 62 63 82 84 104 101 101 96 101 100 99 99 93 96 90 86 84 86 82 81 80 80 81
62 62 62 62 62 62 61 61 61 61 61 61 61 61 61 61 61 61 60 60 59 60 60 62 63 76 88 91 104 106 104 101 104 102 98 101 101 95 94 86 89 86 79 83 79 79 79
62 62 62 62 62 61 61 61 61 61 60 60 60 60 60 60 61 60 60 59 59 60 61 62 64 83 88 104 107 102 105 102 105 105 103 104 102 97 93 93 88 82 82 70 82 80 82
62 62 62 62 61 61 60 60 60 60 60 60 60 60 60 60 60 59 58 58 61 61 63 64 76 86 89 89 97 104 105 99 102 103 101 100 99 94 93 84 77 82 74 77 77 84 82
62 62 62 61 61 60 60 60 60 60 60 59 59 59 59 59 59 58 58 59 62 63 69 82 89 85 93 92 101 102 106 104 98 97 94 92 93 88 87 83 68 74 77 80 77 82 80
62 62 62 61 61 60 60 60 60 60 59 59 59 59 59 59 59 58 61 78 81 82 87 91 91 91 95 103 104 99 103 99 98 93 84 90 84 82 83 86 85 84 80 79 82 85 79
62 61 61 61 60 60 60 60 59 59 59 59 59 58 58 58 59 58 68 88 95 96 86 94 95 95 98 100 91 96 103 91 90 83 89 87 80 89 90 87 85 84 82 80 83 84 80
61 61 61 60 60 60 59 59 59 59 59 59 59 58 57 57 58 62 83 91 102 101 89 91 96 94 95 98 92 93 98 94 88 84 86 82 88 90 86 85 83 86 81 80 79 84 83
61 60 60 60 60 59 59 59 59 59 58 58 58 57 57 57 58 88 84 95 101 101 82 83 88 93 97 97 90 102 101 95 89 84 87 86 92 87 86 84 87 80 87 85 82 80 67
61 60 60 60 60 59 59 58 58 58 58 58 57 56 56 53 81 87 97 103 103 98 68 87 90 104 99 92 94 93 102 95 85 86 87 83 85 85 82 85 87 83 88 86 84 81 82
61 61 61 60 60 59 58 58 58 58 58 57 56 55 55 63 76 95 103 101 97 77 68 82 90 87 89 92 93 94 93 98 96 88 89 87 95 91 89 91 88 90 86 86 86 83 73
60 60 60 60 59 58 58 58 58 58 57 56 54 54 56 87 93 100 101 95 78 73 88 81 84 89 88 86 89 89 85 84 81 75 77 84 85 91 92 85 90 88 82 72 71 66 59
61 60 60 59 59 58 58 58 58 57 57 55 52 54 65 87 102 98 95 84 70 82 83 90 89 90 84 89 88 88 86 82 88 87 83 78 76 87 92 87 83 85 84 74 62 68 72
60 60 60 59 58 58 58 58 57 57 56 54 51 77 92 96 98 98 89 77 80 83 87 85 88 83 84 89 88 87 85 86 89 90 79 80 78 92 93 94 91 84 79 89 79 82 76
60 60 60 59 58 58 58 58 57 57 56 54 81 95 95 99 100 95 84 71 83 88 87 87 80 86 81 85 84 85 85 90 88 93 95 86 76 89 91 93 92 88 92 79 80 65 63
60 60 60 59 58 58 58 58 57 56 55 53 84 91 96 102 99 89 79 83 84 90 88 85 84 82 84 84 87 84 85 91 92 91 93 91 85 82 89 84 83 84 82 84 84 80 69
60 59 59 59 58 58 58 58 57 55 53 59 92 88 98 101 84 89 85 86 63 87 89 87 87 85 84 85 83 84 83 89 93 92 86 91 86 78 82 92 94 90 86 86 76 71 77
59 59 59 59 58 59 58 57 56 55 54 73 88 92 100 98 80 85 87 85 85 84 86 84 83 86 88 82 77 83 86 92 89 88 86 90 82 73 77 86 92 86 88 88 87 86 75
59 59 59 59 59 59 58 57 56 55 55 70 87 83 89 91 90 84 81 81 80 85 84 84 83 86 82 81 85 80 83 89 89 88 73 82 83 78 72 78 79 75 82 86 86 77 78
59 59 59 59 59 59 58 57 56 55 56 73 88 83 81 84 84 83 81 80 77 78 83 84 80 81 80 75 78 79 84 86 89 78 83 86 75 80 82 84 85 83 83 84 80 82 76
59 59 59 59 59 59 59 58 57 55 54 85 79 76 88 84 78 78 67 78 75 79 77 78 76 80 79 74 77 75 81 79 78 86 84 87 74 78 75 82 83 79 82 83 84 84 83
59 59 59 59 59 59 59 58 57 55 60 80 79 84 79 66 78 79 78 75 74 75 78 79 77 75 75 77 78 81 83 83 82 78 78 77 75 71 67 78 78 72 79 82 84 86 86
59 58 58 59 59 59 59 58 58 56 56 76 76 77 77 78 80 76 74 73 73 73 71 77 78 74 80 84 83 84 84 83 82 82 85 75 73 72 67 71 59 78 88 87 83 86 88
58 58 58 58 58 59 59 59 58 57 56 73 77 74 74 75 77 74 73 73 75 75 73 75 78 81 83 79 73 70 74 74 77 81 82 83 75 68 64 65 71 77 82 82 79 78 88
58 58 58 58 58 58 59 59 59 57 56 70 76 76 75 71 74 72 72 72 71 73 75 76 80 84 81 75 72 61 62 68 67 73 83 82 80 71 67 60 57 74 79 86 85 69 83
58 58 57 57 58 58 59 59 59 58 56 63 76 75 74 70 81 73 72 69 75 73 72 76 74 76 80 72 68 66 66 73 64 64 66 69 68 65 67 63 69 80 79 83 61 66 77
57 57 57 57 57 57 58 58 58 58 57 61 76 75 69 70 76 75 75 70 74 74 69 74 72 74 74 67 69 69 68 70 67 69 67 63 61 62 64 55 54 74 76 67 69 78 80
57 57 57 57 57 57 58 58 58 57 57 58 72 78 75 67 74 78 77 78 75 75 72 76 71 70 73 68 72 71 66 69 65 60 71 61 65 63 59 56 59 60 72 79 78 78 78
MSLP
1021.12 1020.78 1020.37 1019.96 1019.59 1019.20 1018.85 1018.48 1018.10 1017.73 1017.35 1017.00 1016.69 1016.38 1016.05 1015.78 1015.60 1015.45 1015.30 1015.15 1014.98 1014.91 1014.71 1014.49 1014.36 1014.13 1013.75 1010.65 1007.55 1008.29 1008.90 1009.10 1009.03 1008.48 1007.13 1006.37 1005.58 1005.30 1005.22 1005.71 1006.04 1006.01 1006.98 1007.51 1007.96 1007.97 1007.97
1021.32 1020.88 1020.47 1020.05 1019.68 1019.28 1018.90 1018.50 1018.12 1017.71 1017.28 1016.88 1016.56 1016.30 1015.99 1015.65 1015.41 1015.25 1015.10 1015.00 1014.85 1014.72 1014.55 1014.36 1014.20 1014.16 1012.36 1008.51 1006.70 1007.62 1007.89 1008.49 1007.68 1007.35 1006.65 1006.18 1005.47 1005.69 1005.25 1005.71 1005.96 1006.31 1006.97 1007.19 1007.80 1007.87 1007.86
1021.51 1021.11 1020.67 1020.18 1019.75 1019.35 1018.92 1018.51 1018.10 1017.70 1017.22 1016.78 1016.43 1016.11 1015.82 1015.52 1015.25 1015.05 1014.90 1014.76 1014.63 1014.50 1014.32 1014.16 1014.06 1013.23 1010.07 1006.89 1006.72 1006.67 1007.25 1007.39 1007.03 1006.87 1006.07 1006.07 1005.77 1005.62 1005.22 1005.22 1006.07 1006.12 1005.82 1006.06 1007.24 1007.70 1007.50
1021.80 1021.30 1020.87 1020.35 1019.84 1019.33 1018.86 1018.40 1017.99 1017.59 1017.13 1016.68 1016.30 1015.93 1015.56 1015.29 1015.02 1014.86 1014.66 1014.49 1014.31 1014.19 1014.04 1013.96 1013.92 1012.32 1007.88 1006.46 1006.54 1006.65 1006.73 1006.73 1006.79 1006.71 1006.32 1005.86 1005.94 1005.53 1005.23 1005.32 1005.39 1005.21 1004.95 1005.24 1005.83 1006.90 1006.91
1021.95 1021.46 1020.96 1020.45 1019.93 1019.36 1018.79 1018.31 1017.81 1017.41 1016.94 1016.49 1016.10 1015.70 1015.32 1015.10 1014.84 1014.62 1014.40 1014.14 1013.79 1013.80 1013.75 1013.71 1013.01 1010.63 1006.48 1007.42 1006.59 1006.12 1006.26 1006.20 1006.48 1006.44 1006.53 1006.46 1006.06 1005.07 1004.59 1004.59 1004.25 1003.99 1003.43 1003.67 1004.41 1005.40 1005.76
1022.02 1021.55 1021.04 1020.53 1020.00 1019.37 1018.76 1018.21 1017.72 1017.20 1016.69 1016.22 1015.84 1015.44 1015.06 1014.81 1014.59 1014.35 1014.15 1013.93 1013.61 1013.61 1013.38 1012.31 1010.63 1008.92 1006.28 1005.47 1005.23 1005.81 1005.93 1005.89 1006.06 1006.12 1006.17 1006.16 1005.34 1004.28 1003.67 1003.22 1003.36 1003.15 1003.03 1002.89 1003.19 1004.10 1005.10
1022.17 1021.66 1021.14 1020.57 1020.02 1019.37 1018.68 1018.09 1017.56 1017.01 1016.43 1015.89 1015.46 1015.09 1014.74 1014.45 1014.29 1014.12 1013.91 1013.02 1012.70 1011.09 1009.78 1006.81 1006.23 1005.18 1004.51 1004.24 1005.28 1005.51 1005.69 1005.75 1005.75 1005.70 1005.12 1004.84 1004.10 1002.70 1002.52 1002.76 1003.15 1002.91 1002.62 1002.15 1002.43 1003.32 1004.12
1022.31 1021.77 1021.23 1020.58 1020.00 1019.34 1018.60 1017.94 1017.33 1016.75 1016.18 1015.58 1015.08 1014.70 1014.38 1014.14 1014.00 1013.94 1013.53 1009.37 1006.40 1006.31 1005.84 1005.97 1005.28 1004.66 1004.41 1004.74 1004.74 1004.85 1005.38 1005.31 1005.21 1004.80 1004.48 1003.61 1003.31 1002.41 1002.36 1003.01 1002.84 1002.20 1001.46 1001.30 1001.88 1002.66 1003.40
1022.43 1021.82 1021.28 1020.64 1019.99 1019.25 1018.49 1017.78 1017.07 1016.39 1015.82 1015.18 1014.64 1014.26 1014.02 1013.90 1013.88 1013.65 1010.62 1008.02 1006.72 1006.05 1004.35 1004.04 1004.23 1004.10 1004.12 1004.26 1003.56 1004.03 1004.88 1004.60 1004.27 1004.15 1003.47 1002.71 1001.81 1002.37 1002.62 1002.46 1002.08 1001.13 1001.35 1001.52 1001.34 1001.55 1003.27
1022.52 1021.88 1021.28 1020.66 1019.94 1019.15 1018.32 1017.52 1016.74 1015.98 1015.31 1014.72 1014.17 1013.77 1013.64 1013.62 1013.83 1009.81 1008.89 1007.73 1006.96 1006.33 1003.63 1002.99 1003.21 1003.18 1003.23 1003.53 1002.95 1002.80 1004.09 1004.06 1003.71 1003.34 1002.86 1002.68 1002.14 1002.13 1002.15 1001.96 1001.66 1000.82 1001.42 1001.21 1000.92 1000.59 1001.42
1022.60 1021.95 1021.29 1020.67 1019.91 1019.04 1018.17 1017.25 1016.38 1015.56 1014.82 1014.13 1013.58 1013.28 1013.20 1013.14 1010.56 1008.05 1006.19 1006.25 1006.49 1006.08 1002.03 1001.89 1002.11 1002.25 1002.58 1002.75 1002.25 1002.71 1003.50 1003.63 1003.20 1002.94 1002.94 1002.07 1002.07 1001.96 1001.83 1001.49 1001.39 1001.18 1001.50 1000.93 1000.61 1000.02 999.95
1022.75 1022.01 1021.33 1020.63 1019.84 1018.91 1018.00 1017.02 1016.03 1015.17 1014.34 1013.53 1012.92 1012.57 1012.83 1012.68 1010.79 1007.11 1006.48 1006.43 1006.22 1004.46 1000.69 1001.06 1001.48 1001.97 1001.81 1002.11 1001.60 1002.43 1002.95 1003.29 1002.99 1002.80 1002.32 1002.07 1001.51 1001.57 1001.19 1001.00 1001.66 1001.58 1001.33 1000.34 999.73 999.09 999.04
1022.91 1022.17 1021.38 1020.60 1019.76 1018.86 1017.86 1016.78 1015.75 1014.86 1013.98 1013.09 1012.41 1012.01 1012.34 1009.11 1006.69 1006.66 1006.56 1005.84 1004.13 1001.41 1000.34 1000.40 1000.62 1001.09 1001.07 1001.05 1001.15 1001.78 1002.36 1002.54 1002.17 1002.01 1001.30 1001.24 1001.22 1001.23 1001.46 1001.11 1001.00 1001.04 1000.47 998.69 997.88 998.53 1000.04
1023.00 1022.22 1021.43 1020.63 1019.77 1018.82 1017.73 1016.60 1015.52 1014.60 1013.74 1013.07 1012.39 1012.18 1010.39 1008.79 1007.27 1006.98 1006.32 1004.94 1002.10 1000.10 999.61 999.93 999.92 999.98 1000.14 999.87 1000.49 1000.77 1001.01 1001.06 1001.43 1000.83 999.97 999.16 998.99 999.41 1000.23 1000.49 1000.17 999.80 999.57 998.61 997.88 997.28 997.20
1023.10 1022.26 1021.46 1020.68 1019.79 1018.80 1017.68 1016.48 1015.30 1014.28 1013.54 1012.94 1012.55 1010.76 1008.09 1007.19 1007.17 1006.92 1005.30 1002.84 1000.43 1000.26 1000.08 1000.01 999.83 999.50 999.34 999.34 999.60 999.85 1000.12 999.75 999.70 1000.26 999.88 998.38 998.41 998.75 999.03 999.42 999.76 999.67 999.41 999.12 998.53 997.97 997.10
1023.21 1022.39 1021.55 1020.74 1019.82 1018.80 1017.70 1016.48 1015.16 1013.93 1013.16 1012.69 1010.62 1007.27 1006.46 1006.62 1006.70 1006.22 1004.50 1001.92 1001.21 1001.52 1001.48 1000.93 999.64 999.09 998.52 998.53 999.16 999.24 999.00 998.96 999.14 999.26 999.67 999.30 998.68 998.39 998.71 999.30 999.40 999.40 998.95 998.40 998.24 997.91 997.16
1023.35 1022.58 1021.71 1020.83 1019.92 1018.84 1017.76 1016.55 1015.27 1013.80 1012.33 1011.74 1009.70 1005.53 1005.98 1006.07 1006.20 1005.06 1002.91 1001.42 1001.74 1002.07 1002.12 1001.09 1000.15 999.78 999.39 998.72 998.39 998.63 998.63 998.49 998.84 998.76 999.30 999.20 999.12 998.55 998.17 998.56 998.14 998.47 998.72 998.69 998.41 997.92 997.07
1023.52 1022.73 1021.93 1021.05 1020.08 1018.96 1017.81 1016.72 1015.54 1014.22 1012.21 1011.12 1007.67 1004.49 1005.62 1005.83 1004.98 1003.29 1002.19 1001.73 1003.08 1002.24 1002.33 1001.91 1001.52 1000.97 1000.30 999.83 999.39 999.05 998.62 998.31 999.20 999.50 999.27 999.33 998.96 998.01 997.66 997.49 997.56 997.66 997.39 997.58 997.55 997.60 997.47
1023.70 1022.98 1022.24 1021.32 1020.29 1019.18 1018.12 1016.97 1015.67 1014.68 1014.17 1012.24 1007.20 1004.92 1005.30 1005.10 1003.36 1002.28 1002.42 1002.84 1003.19 1002.72 1002.29 1002.24 1001.74 1001.52 1001.17 1001.05 1000.54 1000.17 999.45 999.32 1000.42 1000.47 1000.18 999.93 999.29 998.55 997.89 997.28 996.67 996.75 997.23 997.44 997.35 996.89 996.63
1023.93 1023.27 1022.50 1021.65 1020.62 1019.59 1018.53 1017.29 1015.88 1014.46 1013.94 1012.73 1007.92 1004.96 1004.73 1004.77 1004.37 1003.69 1003.12 1003.03 1003.17 1003.83 1003.69 1003.68 1003.08 1002.74 1002.45 1001.75 1001.28 1000.87 1000.24 1000.19 1000.87 1001.44 1001.96 1001.66 1000.25 999.19 998.09 996.83 997.50 998.84 998.03 997.38 997.03 996.34 995.97
1024.26 1023.56 1022.82 1021.94 1021.09 1020.18 1019.12 1017.80 1016.22 1014.39 1012.44 1012.29 1008.44 1006.56 1006.72 1004.42 1004.56 1004.50 1004.63 1004.30 1004.04 1003.74 1004.25 1004.27 1003.67 1003.53 1003.14 1002.78 1002.02 1001.27 1001.04 1000.83 1000.67 1001.46 1002.03 1001.82 1000.64 1000.06 999.23 998.45 997.63 997.28 997.24 997.11 997.02 996.62 996.02
1024.41 1023.77 1023.02 1022.36 1021.63 1020.76 1019.75 1018.54 1017.10 1015.10 1012.87 1010.59 1009.42 1009.09 1007.53 1006.62 1006.57 1005.97 1005.54 1004.86 1005.33 1004.88 1005.46 1004.70 1004.44 1004.45 1004.46 1004.35 1003.74 1002.92 1002.15 1002.35 1001.90 1001.74 1001.31 1001.42 1000.65 1000.53 999.81 999.17 998.37 997.74 997.49 997.15 996.82 996.43 996.03
1024.59 1023.97 1023.32 1022.75 1022.08 1021.30 1020.42 1019.40 1018.23 1016.91 1014.44 1012.28 1012.29 1010.94 1009.73 1008.10 1006.83 1006.27 1006.18 1006.76 1006.75 1007.16 1006.49 1006.46 1006.24 1006.29 1005.78 1005.46 1005.88 1005.31 1004.60 1004.24 1003.69 1003.19 1002.61 1002.52 1002.14 1001.46 999.89 999.62 998.73 997.54 997.32 996.95 996.52 996.12 995.80
1024.76 1024.21 1023.71 1023.16 1022.53 1021.79 1020.99 1020.14 1019.23 1018.26 1017.79 1015.24 1014.36 1012.80 1010.06 1007.74 1007.74 1007.86 1008.11 1008.30 1008.08 1008.18 1007.95 1007.41 1007.36 1007.13 1006.63 1007.16 1006.70 1005.63 1004.74 1003.98 1003.51 1003.01 1002.80 1002.41 1002.41 1002.21 1001.04 1000.46 998.58 997.87 997.47 996.96 996.66 995.91 996.04
1024.96 1024.50 1024.04 1023.52 1022.93 1022.29 1021.58 1020.83 1020.10 1019.29 1018.53 1016.70 1015.49 1014.04 1012.01 1009.39 1009.24 1008.96 1009.03 1008.97 1008.85 1008.69 1008.40 1007.90 1007.71 1007.69 1007.86 1007.41 1006.27 1004.76 1003.44 1002.58 1002.20 1002.06 1001.97 1002.03 1002.17 1001.84 1001.47 1000.54 999.59 998.85 998.05 997.56 997.14 996.91 996.90
1025.11 1024.72 1024.27 1023.80 1023.28 1022.69 1022.07 1021.42 1020.74 1020.09 1019.33 1017.55 1016.27 1015.78 1013.72 1011.68 1009.88 1010.79 1010.23 1009.81 1009.15 1008.53 1007.85 1007.78 1008.39 1008.34 1008.17 1007.02 1005.73 1004.77 1003.47 1002.56 1002.09 1001.63 1001.53 1001.88 1001.66 1001.98 1001.88 1001.00 999.89 999.52 999.52 999.51 999.08 999.12 999.22
1025.21 1024.83 1024.45 1024.01 1023.52 1022.99 1022.43 1021.86 1021.25 1020.57 1019.85 1018.98 1016.48 1016.63 1014.74 1012.82 1011.16 1011.86 1010.60 1010.88 1010.49 1009.82 1008.75 1008.17 1008.65 1008.01 1007.74 1006.58 1005.36 1004.37 1003.48 1003.28 1002.98 1002.65 1002.48 1002.14 1002.56 1002.24 1001.66 1001.54 1001.12 1000.83 1001.13 1001.25 1000.97 1001.51 1001.49
1025.25 1024.89 1024.52 1024.11 1023.68 1023.20 1022.69 1022.17 1021.61 1021.05 1020.42 1019.54 1016.65 1017.05 1016.43 1014.24 1012.44 1012.43 1012.23 1012.04 1011.15 1010.59 1009.68 1009.28 1008.98 1008.23 1007.47 1006.83 1005.57 1004.99 1004.36 1004.14 1004.21 1003.85 1003.67 1003.94 1003.71 1003.51 1003.09 1003.61 1003.55 1004.09 1002.71 1002.21 1003.18 1002.59 1002.52
1025.22 1024.85 1024.52 1024.17 1023.77 1023.33 1022.85 1022.38 1021.90 1021.43 1020.93 1020.36 1017.21 1016.63 1017.12 1016.01 1013.24 1013.31 1013.05 1012.95 1012.72 1012.31 1011.73 1010.29 1009.93 1009.54 1009.07 1008.39 1007.12 1006.65 1006.29 1005.78 1005.33 1004.55 1004.77 1005.16 1005.54 1005.26 1005.67 1005.19 1005.88 1005.86 1004.42 1003.67 1003.41 1002.98 1002.91
Wind_Speed
16 16 16 16 15 15 16 16 16 15 14 14 13 13 13 12 11 9 8 8 7 6 7 7 7 6 8 10 7 10 9 11 15 16 13 12 10 6 7 4 9 7 6 4 4 4 4
16 16 16 16 16 16 16 16 17 16 16 15 14 13 13 12 12 10 9 8 8 7 7 7 6 6 9 15 8 16 13 16 14 14 12 10 6 8 6 4 7 5 1 3 3 2 4
17 17 17 17 17 16 16 16 17 17 16 16 15 15 13 12 11 10 10 9 9 8 8 8 7 8 12 7 1 7 15 16 14 12 10 9 7 12 7 5 2 4 9 6 8 6 5
17 17 18 17 17 17 17 17 17 16 16 16 16 15 14 12 11 11 10 10 9 9 9 8 7 11 9 6 3 8 14 15 10 12 9 6 8 12 8 3 10 7 6 7 9 11 9
17 17 18 18 18 18 18 18 18 17 17 16 15 15 14 12 11 10 9 11 8 9 9 8 9 11 9 5 12 12 13 14 12 10 6 5 12 15 6 13 4 12 5 5 9 8 2
17 18 19 19 19 19 19 19 19 19 18 17 15 14 13 11 9 9 9 8 7 9 9 9 10 9 10 13 15 13 13 10 12 11 11 12 10 15 14 10 5 8 10 8 5 10 8
18 19 20 20 20 20 20 20 20 19 19 18 16 13 11 9 8 8 6 7 8 9 12 11 12 8 7 13 13 14 12 12 12 11 15 16 14 14 4 1 7 10 9 9 6 4 7
19 19 20 22 21 21 21 21 20 20 20 19 17 13 11 8 7 6 8 10 2 9 10 19 7 4 2 12 14 15 13 13 14 15 17 14 13 16 6 4 8 10 12 8 6 4 10
19 19 19 19 22 22 22 22 22 21 20 19 16 13 8 6 3 5 13 15 7 7 9 15 13 14 13 11 13 15 16 16 12 16 17 17 14 1 2 8 12 13 8 9 9 7 7
19 19 19 20 21 22 22 23 23 22 21 20 17 12 7 5 4 9 12 18 11 7 8 13 13 11 10 13 11 9 18 15 10 14 15 12 18 8 11 12 10 15 7 9 11 13 1
19 19 20 21 22 23 23 24 24 24 23 21 17 10 8 20 10 9 8 8 11 6 8 13 12 11 13 16 11 13 13 18 16 12 10 15 12 13 14 15 2 13 8 12 11 15 15
19 20 20 21 23 23 24 25 25 25 24 22 18 8 11 6 8 6 3 6 7 9 3 9 10 13 15 16 10 8 13 14 12 14 14 16 13 12 12 6 5 11 13 17 16 15 11
20 20 20 22 23 24 25 26 26 26 24 22 17 6 11 6 3 7 5 9 9 10 5 10 14 18 16 14 14 12 14 15 14 11 15 17 19 18 13 16 14 11 15 15 10 9 7
20 20 20 22 23 24 26 27 27 27 25 20 13 8 13 10 2 6 7 10 10 5 3 5 4 15 15 13 14 13 13 14 16 17 14 11 16 24 19 21 16 15 14 13 14 10 12
20 20 21 23 23 25 26 28 28 28 25 19 2 8 8 8 4 6 9 11 4 2 6 5 9 11 14 13 11 15 14 13 14 15 14 7 7 8 9 20 19 16 17 13 16 17 14
20 20 22 23 24 25 27 28 30 30 27 18 7 9 5 7 6 7 9 13 3 6 7 7 13 10 12 16 13 14 14 11 14 12 12 14 13 6 13 8 13 16 17 11 11 13 13
20 20 22 23 25 26 27 29 30 31 31 15 9 6 7 7 6 8 10 3 2 5 5 7 9 7 9 11 11 15 11 12 8 6 8 15 14 15 9 11 14 9 13 14 15 13 13
19 20 22 23 25 27 29 30 30 29 34 6 10 3 7 6 9 8 9 3 4 10 5 10 7 13 12 12 10 13 17 13 8 6 12 14 14 14 16 16 16 14 16 15 13 17 11
20 19 21 23 25 27 29 30 30 28 19 9 7 4 6 8 7 7 4 6 6 6 7 5 7 4 12 11 10 13 14 4 3 8 7 12 9 13 18 16 19 12 14 14 18 16 15
20 19 20 22 25 27 29 30 31 31 19 7 6 5 6 6 5 10 3 7 4 6 11 6 10 9 12 13 14 11 13 11 3 11 7 5 17 19 17 19 4 8 21 16 18 16 16
18 18 20 22 24 26 27 30 32 34 33 6 3 5 6 1 3 6 4 4 6 6 4 6 9 9 12 11 15 15 14 17 12 10 7 13 19 21 22 25 25 21 20 19 18 19 17
17 17 19 21 22 24 26 28 31 36 40 6 7 7 2 3 2 7 6 3 9 7 4 13 5 14 6 14 15 17 18 14 9 16 9 12 16 18 22 26 23 24 23 23 24 23 22
16 16 18 19 21 22 24 25 28 31 29 7 8 2 6 4 2 6 7 7 7 6 4 6 9 9 12 10 13 15 15 16 18 18 17 16 15 18 21 21 23 24 22 26 26 25 22
15 16 18 20 20 21 22 23 25 27 24 10 7 7 6 3 4 8 4 3 5 5 9 11 8 10 8 11 15 17 20 22 21 21 19 20 19 15 18 20 26 20 21 22 21 19 15
14 15 17 18 19 19 20 21 22 24 25 10 7 7 5 6 4 4 4 8 8 5 10 8 8 8 9 12 11 11 13 18 19 19 20 19 17 17 17 18 24 24 19 14 12 13 9
14 14 15 17 18 19 19 19 20 21 23 12 8 8 6 7 7 6 10 3 8 8 9 4 2 7 10 9 9 12 11 13 8 6 5 10 13 15 16 21 22 16 7 12 8 12 13
12 12 14 15 16 17 18 18 19 20 20 12 4 11 6 6 5 9 6 9 7 7 7 3 6 8 7 8 9 10 11 9 10 12 13 10 6 14 14 18 19 16 13 8 11 3 9
11 11 13 14 15 16 16 17 17 18 19 12 4 7 7 6 7 4 5 7 4 5 7 9 7 6 7 7 8 7 8 7 8 12 11 13 10 12 11 11 14 19 11 7 11 9 9
11 11 12 13 14 14 15 16 16 16 17 15 6 6 4 6 8 9 8 9 9 9 8 4 7 5 7 7 6 5 9 10 14 12 0 6 9 8 7 4 13 4 16 13 6 11 7
Wind_Direction
16 12 10 7 3 1 359 359 356 354 351 348 344 341 335 330 324 319 315 314 306 296 282 278 273 283 263 220 250 114 139 151 181 216 218 220 244 288 334 356 321 13 16 339 26 277 283
9 8 4 3 0 358 355 354 352 349 347 344 342 339 334 327 322 315 311 307 297 289 272 263 263 277 241 246 89 136 171 172 190 210 217 240 294 358 280 36 299 16 333 350 114 164 214
6 4 1 359 356 353 350 348 347 344 343 340 339 337 332 324 318 314 307 300 291 274 256 248 244 251 248 259 11 170 180 191 202 217 222 232 288 268 347 293 20 287 276 198 152 177 157
1 359 356 355 352 349 346 345 344 340 337 335 335 334 330 325 317 311 303 295 279 254 240 240 240 245 271 132 241 185 183 191 197 221 266 271 250 273 265 59 233 258 281 177 135 180 165
358 355 352 351 348 346 342 341 340 338 333 331 330 329 327 323 314 307 299 296 260 219 220 216 228 233 227 128 199 182 187 188 194 209 226 279 255 257 239 237 331 241 330 23 144 192 193
357 354 350 349 345 343 340 339 338 334 330 328 327 323 318 315 308 299 298 274 164 178 210 210 268 248 214 201 182 170 190 191 194 204 218 222 233 239 225 281 257 346 325 321 353 149 209
353 353 351 348 344 341 338 336 334 331 327 325 325 319 310 302 296 289 260 180 198 193 203 230 163 256 140 147 150 186 179 199 205 214 221 197 231 235 214 261 333 291 296 297 52 133 231
350 351 351 350 344 339 336 334 331 328 326 323 322 315 304 292 282 278 261 234 344 348 209 219 251 251 269 166 184 184 191 203 203 220 224 223 232 262 38 278 276 285 273 12 147 210 218
349 350 348 348 343 337 335 332 329 327 326 323 320 310 293 276 215 209 227 222 325 304 260 168 196 208 181 212 202 180 201 218 202 222 229 250 229 247 259 251 267 268 352 343 315 277 236
348 348 348 349 341 338 334 331 328 327 327 324 321 311 275 179 220 184 223 234 268 281 265 135 189 216 184 205 224 205 188 221 228 242 240 233 259 217 234 252 273 291 12 307 289 286 151
352 350 350 350 341 338 334 331 330 330 329 325 323 310 235 218 338 205 69 177 203 239 253 159 134 117 180 211 105 179 184 218 244 212 253 233 231 245 248 253 15 294 325 308 293 293 290
354 351 353 346 342 338 335 333 332 332 332 329 327 298 173 182 229 317 158 143 215 233 162 152 144 182 190 207 204 126 194 226 236 253 238 256 261 239 263 266 237 289 276 261 249 247 249
353 352 347 346 343 340 337 335 334 334 335 334 334 182 195 282 64 155 198 196 218 261 137 147 175 166 197 184 212 179 196 201 226 217 228 232 235 248 229 258 233 234 258 269 255 218 265
354 349 348 346 345 342 339 337 336 336 339 338 336 157 215 284 184 251 215 223 258 12 140 75 212 177 205 202 207 194 190 219 213 254 285 230 216 209 214 228 262 242 253 292 309 311 336
351 350 349 347 346 344 341 339 338 337 339 339 316 205 224 160 203 241 228 228 299 6 36 254 172 234 204 220 245 201 218 231 222 207 258 292 217 90 220 215 229 241 257 285 290 286 261
350 350 347 348 348 346 343 342 339 337 337 334 250 212 114 152 188 225 247 268 32 332 308 244 262 203 241 197 202 241 215 218 239 217 223 268 282 221 198 200 241 262 270 247 221 258 266
349 348 348 349 349 347 346 345 341 340 334 336 246 217 121 173 217 232 247 242 80 167 294 278 275 285 264 296 248 225 227 243 201 244 253 256 253 268 217 208 256 182 233 252 275 295 312
347 350 350 349 350 349 348 345 344 345 336 248 280 224 137 195 220 226 259 8 12 270 206 267 262 282 294 301 291 274 268 246 47 265 260 245 265 257 251 243 228 250 266 220 227 233 246
349 354 351 351 352 351 349 346 344 346 358 313 263 70 161 220 259 209 138 264 284 288 249 302 281 283 307 283 278 270 274 59 32 294 284 285 239 261 254 252 236 235 238 252 263 278 271
351 353 354 354 354 352 349 347 344 341 350 296 277 211 151 218 283 292 344 255 262 146 286 288 288 297 271 265 263 256 277 267 170 280 26 311 273 278 284 293 15 264 282 255 270 253 260
349 354 355 356 355 353 351 350 347 344 338 290 322 47 4 150 136 314 307 339 283 274 177 275 274 252 296 296 286 272 252 257 226 179 221 249 259 268 274 280 283 286 270 262 249 265 275
349 353 357 357 356 354 353 354 353 350 337 48 355 329 307 31 250 274 132 194 305 316 318 287 242 305 333 290 290 298 307 309 298 286 231 264 277 274 270 279 281 277 280 281 276 275 271
348 356 357 356 357 355 356 357 357 359 344 25 2 3 281 127 293 266 55 16 356 340 259 313 326 309 290 344 337 312 308 291 284 280 283 285 281 283 272 273 271 259 256 258 260 258 262
347 358 356 356 357 356 356 358 360 358 5 328 10 293 293 63 317 12 352 323 316 334 304 313 310 288 319 336 301 273 260 258 259 261 261 263 260 263 272 277 262 272 284 289 300 280 290
346 356 354 355 355 355 356 357 359 357 354 326 10 339 339 311 6 170 347 322 297 244 238 275 305 334 322 295 284 270 259 238 238 248 251 251 254 259 261 256 270 270 272 290 313 300 306
344 352 352 352 352 353 355 357 357 356 353 322 45 336 311 306 67 346 311 303 309 331 283 180 204 290 296 273 270 264 270 311 306 305 210 289 278 243 249 258 261 274 32 359 305 276 13
339 348 349 349 349 350 352 355 356 354 350 329 29 2 297 301 62 336 347 340 329 293 278 273 4 293 228 273 273 278 285 334 295 283 291 285 271 280 254 247 257 282 4 267 262 344 11
332 341 344 344 344 346 348 350 353 353 350 341 1 23 340 313 314 343 335 306 298 253 306 33 261 195 256 280 275 306 316 339 313 305 299 305 294 284 272 324 262 347 311 323 3 327 339
326 333 338 337 339 340 342 345 347 349 345 337 317 11 347 265 339 318 286 290 283 298 307 292 340 291 3 302 329 329 303 304 316 293 95 277 342 315 296 246 206 173 294 332 279 302 319